Location: Unspecified
(0.0000°N, 0.0000°E)
Time: 20:20:53
(UTC+00:00)

Vanguard 2 Rocket - Visible Passes

Search period start: 24 June 2016 00:00
Search period end: 04 July 2016 00:00
Orbit: 554 x 3329 km, 32.9° (Epoch: 23 June)

Date Brightness Start Highest point End Pass type
(mag) Time Alt. Az. Time Alt. Az. Time Alt. Az.
24 Jun 9.9 18:12:32 10° NW 18:29:25 53° NE 18:48:16 11° ESE visible
24 Jun 9.4 20:28:36 10° WNW 20:48:40 74° SW 20:54:06 57° SSE visible
24 Jun 10.5 22:51:16 10° W 22:59:56 24° WSW 22:59:56 24° WSW visible
25 Jun 9.6 19:27:27 10° NW 19:46:34 88° NE 19:58:16 34° SE visible
25 Jun 9.9 21:47:07 10° W 22:04:07 42° SW 22:04:07 42° SW visible
26 Jun 9.7 18:27:07 10° NW 18:44:29 70° NE 19:02:28 15° ESE visible
26 Jun 9.6 20:44:19 10° WNW 21:03:42 57° SW 21:08:18 50° S visible
26 Jun 10.8 23:09:48 10° WSW 23:14:09 16° WSW 23:14:09 16° WSW visible
27 Jun 9.6 19:42:41 10° WNW 20:01:33 72° SW 20:12:31 36° SE visible
27 Jun 10.3 22:04:30 10° W 22:18:22 31° SW 22:18:22 31° SW visible
28 Jun 8.5 05:15:24 10° SSW 05:19:10 17° SSE 05:22:12 10° ESE visible
28 Jun 9.6 18:42:00 10° NW 18:59:26 90° SW 19:16:44 18° SE visible
28 Jun 9.9 21:00:48 10° W 21:19:02 42° SSW 21:22:34 40° SSW visible
29 Jun 9.1 04:17:34 12° S 04:19:19 13° SSE 04:21:48 10° SE visible
29 Jun 9.9 19:58:29 10° WNW 20:16:44 55° SW 20:26:48 34° SSE visible
29 Jun 10.6 22:22:57 10° WSW 22:32:38 22° SW 22:32:38 22° SW visible
30 Jun 7.6 05:29:09 10° SW 05:34:53 35° SSE 05:38:53 10° E visible
30 Jun 9.7 18:57:18 10° WNW 19:14:31 70° SW 19:31:01 20° SE visible
30 Jun 10.2 21:18:10 10° W 21:34:51 32° SSW 21:36:51 31° SSW visible
01 Jul 8.4 04:31:55 17° SSW 04:35:22 24° SSE 04:39:34 10° ESE visible
01 Jul 9.6 17:57:01 10° NW 18:12:31 87° SW 18:33:20 10° SE visible
01 Jul 10.1 20:15:00 10° W 20:32:18 41° SSW 20:41:04 30° SSE visible
01 Jul 10.8 22:42:17 10° WSW 22:46:54 15° SW 22:46:54 15° SW visible
02 Jul 9.1 03:36:11 18° SSE 03:36:11 18° SSE 03:39:49 10° ESE visible
02 Jul 10.0 19:13:09 10° WNW 19:29:51 53° SSW 19:45:15 20° SE visible
02 Jul 10.4 21:36:31 10° WSW 21:51:06 24° SSW 21:51:06 24° SSW visible
03 Jul 7.5 04:46:17 20° SW 04:51:05 46° SSE 04:55:48 10° ENE visible
03 Jul 9.8 18:12:23 10° WNW 18:27:40 67° SW 18:48:08 10° SE visible
03 Jul 10.3 20:32:22 10° W 20:48:22 31° SSW 20:55:16 26° S visible
